Вернуться в каталог

HELIOS 1A

АктивенВоенныеPO
NORAD 23605·PAYLOAD·🇫🇷 France

Запущен Jul 7, 1995 с Guiana Space Centre

Loading…

Ближайшие Пролёты (ближайшие 24 часа)

TLE

СвежийSource: Space-Track

Эпоха: Sep 14, 2026, 10:29 UTC

1 23605U 95033A   26257.43706073  .00001870  00000-0  13240-3 0  9997
2 23605  98.1824 153.2517 0013680  92.2443 268.0348 15.06134514681596

Отслеживайте HELIOS 1A в реальном времени с AllMySat

Download on the App Store